Regional Weather Roundup
Issued by NWS

Home | Current Version | Previous Version | Text Only | Print | Product List | Glossary On
Versions: 1 2 3 4 5 6 7 8 9 10 11 12 13 14 15 16 17 18 19 20 21 22 23 24 25 26 27
000
ASUS42 KKEY 280010
RWRKEY

FLORIDA REGIONAL WEATHER ROUNDUP FOR THE FLORIDA KEYS
NATIONAL WEATHER SERVICE KEY WEST FLORIDA
800 PM EDT SAT AUG 27 2016

...SOUTH FLORIDA AND THE KEYS...

CITY           SKY/WX    TMP DP  RH WIND       PRES   REMARKS
FORT MYERS     CLOUDY    81  77  88 CALM      29.92R
SW REGIONAL AP LGT RAIN  80  73  79 CALM      29.92S
NAPLES         CLOUDY    81  77  88 N6        29.90S
MIAMI          CLOUDY    86  76  71 NE7       29.88S HX  96
WEST KENDALL   MOCLDY    85  76  74 NE10      29.88S HX  94
HOMESTEAD      CLOUDY    84  77  80 NE13      29.87R HX  94
MARATHON       MOCLDY    86  76  71 NE13      29.86R HX  96
BOCA CHICA NAS NOT AVBL
KEY WEST INTL  CLOUDY    80  79  96 NE3       29.86S

...INTERNATIONAL WEATHER...

CITY           SKY/WX    TMP DP  RH WIND       PRES   REMARKS
NASSAU BAHAMAS MOCLDY    84  77  79 E13       29.88R HX  94
CANCUN MEXICO  PTCLDY    84  79  84 N5        29.86R HX  96
COZUMEL MEXICO MOCLDY    81  77  89 NE7       29.86R

ADJACENT COASTAL WATERS...

STATION/POSITION TIME  SKY/WX   TEMP    WIND        PRES    WAVE
                                AIR SEA DIR/SP/G            HT/PER
                 (UTC)          (F)     (DEG/KT/KT) (MB)    (FT/S)
PULASKI SHOAL LI 0000            83      70/ 11/ 12 1011.9S
SAND KEY         2350            84      60/  9/ 11 1011.6F
LONG KEY         0000            86 88   60/ 12/ 14 1011.4S
FOWEY ROCKS      0000            86 86   60/ 19/ 20 1012.2R

$$




USA.gov is the U.S. government's official web portal to all federal, state and local government web resources and services.